Regional Weather Roundup
Issued by NWS Northern Indiana

Home | Current Version | Previous Version | Graphics & Text | Print | Product List | Glossary On
Versions: 1 2 3 4 5 6 7 8 9 10 11 12 13 14 15 16 17 18 19 20 21 22 23 24 25 26 27 28 29 30 31 32 33 34 35 36 37 38 39 40 41 42 43 44 45 46 47 48 49 50
000
ASUS43 KIWX 091710
RWRIWX

KIWX WEATHER ROUNDUP
NATIONAL WEATHER SERVICE NORTHERN INDIANA
1200 PM EST TUE FEB 09 2016

NOTE: "FAIR" INDICATES FEW OR NO CLOUDS BELOW 12,000 FEET WITH NO
SIGNIFICANT WEATHER AND/OR OBSTRUCTIONS TO VISIBILITY.

* THESE STATIONS ARE NOT UNDER NWS QUALITY CONTROL. THEY ALSO MAY NOT
  REPORT WEATHER SUCH AS PRECIPITATION OR FOG.

INZ001>027-091800-
NORTHERN INDIANA

CITY           SKY/WX    TMP DP  RH WIND       PRES   REMARKS
GARY*          LGT SNOW  21  12  68 W12       29.84R WCI   9
VALPARAISO     LGT SNOW  20  14  77 MISG      29.79R
MICHIGAN CITY* LGT SNOW  23  19  86 NW7G18    29.79R WCI  15
LAPORTE*       LGT SNOW  24  21  89 NW15G22   29.77R WCI  11
KNOX*          CLOUDY    23  18  80 NW18G26   29.77R WCI   9
SOUTH BEND     LGT SNOW  24  20  84 NW13      29.74S FOG     WCI  12
ELKHART*       CLOUDY    27  19  74 NW14      29.72S WCI  15
GOSHEN         CLOUDY    28  20  71 NW15      29.70R WCI  16
MONTICELLO*    FLURRIES  21  13  72 NW16      29.80R WCI   7
LOGANSPORT*    FLURRIES  23  14  68 W13       29.78S WCI  11
ROCHESTER*     LGT SNOW  27  18  69 W9G20     29.74S WCI  17
WARSAW*        CLOUDY    28  21  74 NW16G23   29.71R WCI  17
ANGOLA*        CLOUDY    27  21  80 NW10      29.65S WCI  17
FORT WAYNE     FLURRIES  27  20  75 W16       29.70S WCI  15
HUNTINGTON*    CLOUDY    23  15  73 W12G24    29.72R WCI  11
PERU/GRISSOM   LGT SNOW  21  18  86 W17       29.74S WCI   7
MARION*        CLOUDY    22  13  69 W17       29.75R HAZE    WCI   7

$$
INZ028>050-091800-
CENTRAL INDIANA

CITY           SKY/WX    TMP DP  RH WIND       PRES   REMARKS
LAFAYETTE      LGT SNOW  21  15  78 W14       29.82R WCI   8
KOKOMO*        CLOUDY    21  16  79 W16       29.76R VSB 3/4 WCI   7
MUNCIE*        CLOUDY    23  16  74 W17       29.74R WCI   9
INDIANAPOLIS   FLURRIES  23  15  71 W17       29.80R WCI   9

$$
MIZ043>046-050>051-056>058-064>065-071>073-077>080-091800-
SOUTHWEST LOWER MICHIGAN

CITY           SKY/WX    TMP DP  RH WIND       PRES   REMARKS
BATTLE CREEK   CLOUDY    25  18  74 NW15      29.66S WCI  13
BENTON HARBOR  LGT SNOW  26  19  74 NW8G23    29.75S WCI  18
COLDWATER*     CLOUDY    27  20  75 NW14G20   29.66S WCI  16
HILLSDALE*     CLOUDY    26  22  85 NW17      29.61S WCI  13
HOLLAND        FLURRIES  27  20  75 NW13G22   29.72R WCI  16
GRAND RAPIDS   FLURRIES  26  19  74 NW17      29.68S WCI  13
KALAMAZOO      CLOUDY    27  19  72 NW20G25   29.68R WCI  13
STURGIS*       CLOUDY    27  19  72 NW17      29.67R WCI  14
THREE RIVERS*  CLOUDY    28  22  76 NW15      29.69R WCI  17

$$
OHZ001>008-015>018-024>025-091800-
NORTHWEST OHIO

CITY           SKY/WX    TMP DP  RH WIND       PRES   REMARKS
DEFIANCE       CLOUDY    31  22  69 W14G23    29.66R WCI  21
FINDLAY        LGT SNOW  27  23  85 W18       29.64S FOG     WCI  14
TOLEDO EXPRESS LGT SNOW  30  27  88 NW13      29.62R FOG     WCI  20
TOLEDO METCALF LGT SNOW  32  28  85 NW8       29.62S VSB 1   WCI  25
LIMA           LGT SNOW  25  21  85 W16       29.66S FOG     WCI  12

$$
AND FOR LAKE MICHIGAN COASTAL AND OPEN LAKE BUOY OBSERVATIONS

STATION/POSITION TEMP    WIND        PRES    VSBY  WAVE
                 AIR SEA DIR/SP/G                  HT/PER
                 (F)     (DEG/KT/KT) (MB)    (MI)  (FT/S)
CALUMET HARBOR    17     290/ 10/ 16 1009.3R
MICHIGAN CITY     22     290/ 21/ 24   N/A
BURNS HARBOR      20     320/ 16     1009.5R
SAINT JOSEPH      25     290/ 19/ 22 1008.8R

$$
&&



USA.gov is the U.S. government's official web portal to all federal, state and local government web resources and services.